Starlink 2015

operational
NORAD ID: 47638 Int'l Des: 2021-012 Owner: SPXS Country: US Constellation: starlink
LEOCIRCULARSTARLINK_TYPE

关于 Starlink 2015

正在加载描述...

实时位置

正在加载3D地球...

即将过境

高度历史

Altitude vs Time

uPlot chart will show altitude changes over time

两行轨道根数

1 47638U 21012U 26033.59305966 .00260330 00000-0 16433-1 0 9993
2 47638 53.0577 134.1714 0001214 107.7789 252.3333 15.07351447276008
Epoch: Feb 2, 2026 • Age: 10 hours

当前状态

高度 548.0 km
速度 7.59 km/s
星下点 46.06°N, 49.08°E
发射日期 Feb 16, 2021
运行时间 4.9 years
类型 internet

技术详情

分类 Payload
质量 260.00 kg
干质量 248.00 kg
总质量 260.00 kg
长度 0.20 m
直径 2.80 m
跨度 9.00 m
形状 Box + pan
制造商 SPXS
平台类型 Starlink
阶段状态 In Orbit
所有者/国家 SPXS/US

大型星座

Loading constellations...